Imperial, CA

10:58 AM PST on February 18, 2018 (GMT -0800)
Imperial County

Weather History for KIPL - September, 2013

Change the Weather History Date:

Saturday, September 28, 2013

  Actual Average Record
Temperature  
Mean Temperature 73 °F -  
Max Temperature 91 °F 97 °F 108 °F (2015)
Min Temperature 55 °F 68 °F 55 °F (2013)
Cooling Degree Days 8    
Growing Degree Days 23 (Base 50)    
Moisture  
Dew Point 32 °F    
Average Humidity 26    
Maximum Humidity 44    
Minimum Humidity 9    
Precipitation  
Precipitation 0.00 in - - ()
Sea Level Pressure  
Sea Level Pressure 29.96 in    
Wind  
Wind Speed 5 mph (West)    
Max Wind Speed 7 mph    
Max Gust Speed -    
Visibility 10 miles    
Events      
Averages and records for this station are not official NWS values.
T = Trace of Precipitation, MM = Missing Value Source: NWS Daily Summary

Daily Weather History Graph

Daily Weather History Graph

Search for Another Location

Airport or City:

Trip Planner

Search our weather history database for the weather conditions in past years. The results will help you decide how hot, cold, wet, or windy it might be!

Date:

Astronomy

Sep. 28, 2013 Rise Set
Actual Time 6:34 AM PDT 6:30 PM PDT
Civil Twilight 6:10 AM PDT 6:55 PM PDT
Nautical Twilight 5:41 AM PDT 7:23 PM PDT
Astronomical Twilight 5:12 AM PDT 7:52 PM PDT
Moon 12:42 AM PDT (9/28) 2:37 PM PDT (9/28)
Length of Visible Light 12h 45m
Length of Day
11h 55m
Waning Crescent, 35% of the Moon is Illuminated
Sep 28
Waning Crescent
Oct 4
New
Oct 11
First Quarter
Oct 18
Full
Oct 26
Last Quarter

Hourly Weather History & Observations

Time (PDT) Temp. Dew Point Humidity Pressure Visibility Wind Dir Wind Speed Gust Speed Precip Events Conditions
12:53 AM 59.0 °F 35.1 °F 41% 29.95 in 10.0 mi West 5.8 mph - N/A   Clear
1:53 AM 57.9 °F 33.1 °F 39% 29.95 in 10.0 mi West 5.8 mph - N/A   Clear
2:53 AM 55.9 °F 34.0 °F 44% 29.95 in 10.0 mi West 5.8 mph - N/A   Clear
3:53 AM 55.9 °F 30.9 °F 39% 29.95 in 10.0 mi West 4.6 mph - N/A   Clear
4:53 AM 55.0 °F 30.9 °F 40% 29.95 in 10.0 mi West 6.9 mph - N/A   Clear
5:53 AM 55.0 °F 30.9 °F 40% 29.96 in 10.0 mi West 5.8 mph - N/A   Clear
6:53 AM 55.0 °F 30.9 °F 40% 29.98 in 10.0 mi West 4.6 mph - N/A   Clear
7:53 AM 62.1 °F 35.1 °F 37% 30.00 in 10.0 mi WSW 4.6 mph - N/A   Clear
8:53 AM 73.9 °F 37.0 °F 26% 30.01 in 10.0 mi WNW 4.6 mph - N/A   Clear
9:53 AM 81.0 °F 42.1 °F 25% 30.02 in 10.0 mi NNW 6.9 mph - N/A   Clear
10:53 AM 84.0 °F 30.9 °F 15% 30.01 in 10.0 mi NNW 4.6 mph - N/A   Clear
11:53 AM 86.0 °F 28.9 °F 13% 30.01 in 10.0 mi Calm Calm - N/A   Clear
12:53 PM 88.0 °F 27.0 °F 11% 29.99 in 10.0 mi Variable 4.6 mph - N/A   Clear
1:53 PM 89.1 °F 26.1 °F 10% 29.96 in 10.0 mi NNE 4.6 mph - N/A   Clear
2:53 PM 89.1 °F 25.0 °F 10% 29.94 in 10.0 mi Calm Calm - N/A   Clear
3:53 PM 91.0 °F 25.0 °F 9% 29.93 in 10.0 mi Variable 3.5 mph - N/A   Clear
4:53 PM 90.0 °F 26.1 °F 10% 29.92 in 10.0 mi Calm Calm - N/A   Clear
5:53 PM 87.1 °F 32.0 °F 14% 29.92 in 10.0 mi West 3.5 mph - N/A   Clear
6:53 PM 81.0 °F 34.0 °F 18% 29.93 in 10.0 mi WSW 5.8 mph - N/A   Clear
7:53 PM 75.0 °F 36.0 °F 24% 29.94 in 10.0 mi WSW 4.6 mph - N/A   Clear
8:53 PM 73.0 °F 35.1 °F 25% 29.96 in 10.0 mi Calm Calm - N/A   Clear
9:53 PM 71.1 °F 34.0 °F 26% 29.96 in 10.0 mi West 4.6 mph - N/A   Clear
10:53 PM 66.9 °F 37.9 °F 34% 29.97 in 10.0 mi WSW 4.6 mph - N/A   Clear
11:53 PM 66.9 °F 35.1 °F 31% 29.98 in 10.0 mi Calm Calm - N/A   Clear